Wharton, TX

7:20 PM CDT on July 25, 2017 (GMT -0500)
Wharton Regional

Weather History for KARM - November, 2012

Change the Weather History Date:

Sunday, November 11, 2012

  Actual Average (KPSX) Record (KPSX)
Temperature  
Mean Temperature 70 °F -  
Max Temperature 80 °F 73 °F 86 °F (1978)
Min Temperature 59 °F 52 °F 34 °F (1950)
Cooling Degree Days 4    
Growing Degree Days 20 (Base 50)    
Moisture  
Dew Point 66 °F    
Average Humidity 78    
Maximum Humidity 94    
Minimum Humidity 58    
Precipitation  
Precipitation 0.01 in - - ()
Sea Level Pressure  
Sea Level Pressure 29.96 in    
Wind  
Wind Speed 14 mph (SSE)    
Max Wind Speed 29 mph    
Max Gust Speed 37 mph    
Visibility 10 miles    
Events Rain    
Averages and records for this station are not official NWS values.
T = Trace of Precipitation, MM = Missing Value Source: NWS Daily Summary

Daily Weather History Graph

Daily Weather History Graph

Search for Another Location

Airport or City:

Trip Planner

Search our weather history database for the weather conditions in past years. The results will help you decide how hot, cold, wet, or windy it might be!

Date:

Astronomy

Nov. 11, 2012 Rise Set
Actual Time 6:45 AM CST 5:31 PM CST
Civil Twilight 6:20 AM CST 5:56 PM CST
Nautical Twilight 5:52 AM CST 6:24 PM CST
Astronomical Twilight 5:23 AM CST 6:53 PM CST
Moon 4:10 AM CST (11/11) 3:48 PM CST (11/11)
Length of Visible Light 11h 35m
Length of Day
10h 45m
Waning Crescent, 7% of the Moon is Illuminated
Nov 11
Waning Crescent
Nov 13
New
Nov 20
First Quarter
Nov 28
Full
Dec 6
Last Quarter

Hourly Weather History & Observations

Time (CST) Temp. Heat Index Dew Point Humidity Pressure Visibility Wind Dir Wind Speed Gust Speed Precip Events Conditions
12:15 AM 71.6 °F - 68.0 °F 88% 29.94 in 10.0 mi SSE 15.0 mph - N/A   Clear
12:35 AM 71.6 °F - 68.0 °F 88% 29.94 in 10.0 mi SSE 16.1 mph 23.0 mph N/A   Clear
12:55 AM 71.6 °F - 68.0 °F 88% 29.94 in 10.0 mi SSE 15.0 mph 19.6 mph N/A   Clear
1:15 AM 71.6 °F - 68.0 °F 88% 29.94 in 10.0 mi SSE 13.8 mph 17.3 mph N/A   Clear
1:35 AM 71.6 °F - 68.0 °F 88% 29.93 in 10.0 mi SSE 13.8 mph 23.0 mph N/A   Scattered Clouds
1:55 AM 71.6 °F - 66.2 °F 83% 29.92 in 10.0 mi SSE 15.0 mph - N/A   Scattered Clouds
2:15 AM 71.6 °F - 68.0 °F 88% 29.92 in 10.0 mi SSE 13.8 mph 20.7 mph N/A   Clear
2:35 AM 73.4 °F - 68.0 °F 83% 29.91 in 10.0 mi SSE 13.8 mph - N/A   Mostly Cloudy
2:55 AM 73.4 °F - 68.0 °F 83% 29.90 in 10.0 mi SSE 16.1 mph 23.0 mph N/A   Overcast
3:15 AM 71.6 °F - 68.0 °F 88% 29.90 in 10.0 mi SSE 17.3 mph 26.5 mph N/A   Overcast
3:35 AM 71.6 °F - 68.0 °F 88% 29.89 in 10.0 mi SSE 18.4 mph 26.5 mph N/A   Overcast
3:55 AM 71.6 °F - 68.0 °F 88% 29.88 in 10.0 mi SSE 17.3 mph 23.0 mph N/A   Mostly Cloudy
4:15 AM 71.6 °F - 68.0 °F 88% 29.88 in 10.0 mi SSE 16.1 mph 23.0 mph N/A   Mostly Cloudy
4:35 AM 71.6 °F - 68.0 °F 88% 29.88 in 10.0 mi SSE 15.0 mph 23.0 mph N/A   Overcast
4:55 AM 73.4 °F - 68.0 °F 83% 29.89 in 10.0 mi SSE 12.7 mph - N/A   Overcast
5:35 AM 71.6 °F - 68.0 °F 88% 29.90 in 10.0 mi SSE 10.4 mph - N/A   Overcast
5:55 AM 71.6 °F - 68.0 °F 88% 29.91 in 10.0 mi SSE 9.2 mph - N/A   Overcast
6:15 AM 71.6 °F - 68.0 °F 88% 29.92 in 10.0 mi SSE 10.4 mph - N/A   Overcast
6:35 AM 71.6 °F - 68.0 °F 88% 29.92 in 10.0 mi SSE 10.4 mph - N/A   Overcast
7:35 AM 73.4 °F - 68.0 °F 83% 29.94 in 10.0 mi SSE 10.4 mph - N/A   Mostly Cloudy
8:15 AM 75.2 °F - 69.8 °F 83% 29.95 in 10.0 mi South 11.5 mph - N/A   Scattered Clouds
8:35 AM 77.0 °F - 69.8 °F 78% 29.96 in 10.0 mi SSE 12.7 mph - N/A   Scattered Clouds
9:15 AM 78.8 °F - 68.0 °F 69% 29.96 in 10.0 mi South 18.4 mph 25.3 mph N/A   Scattered Clouds
9:35 AM 78.8 °F - 66.2 °F 65% 29.96 in 10.0 mi South 21.9 mph 27.6 mph N/A   Scattered Clouds
9:55 AM 78.8 °F - 66.2 °F 65% 29.96 in 10.0 mi South 21.9 mph 29.9 mph N/A   Scattered Clouds
10:15 AM 78.8 °F - 66.2 °F 65% 29.96 in 10.0 mi South 23.0 mph 28.8 mph N/A   Scattered Clouds
10:35 AM 80.6 °F 82.7 °F 66.2 °F 61% 29.96 in 10.0 mi South 19.6 mph 28.8 mph N/A   Scattered Clouds
11:15 AM 80.6 °F 82.7 °F 66.2 °F 61% 29.95 in 10.0 mi South 19.6 mph 26.5 mph N/A   Overcast
11:35 AM 80.6 °F 83.2 °F 68.0 °F 65% 29.95 in 10.0 mi South 18.4 mph - N/A   Mostly Cloudy
12:15 PM 80.6 °F 82.3 °F 64.4 °F 58% 29.94 in 10.0 mi South 24.2 mph 27.6 mph N/A   Overcast
12:35 PM 80.6 °F 82.7 °F 66.2 °F 61% 29.92 in 10.0 mi South 20.7 mph 28.8 mph N/A   Mostly Cloudy
12:55 PM 80.6 °F 82.7 °F 66.2 °F 61% 29.92 in 10.0 mi SSE 18.4 mph - N/A   Mostly Cloudy
1:15 PM 80.6 °F 82.3 °F 64.4 °F 58% 29.92 in 10.0 mi South 20.7 mph 26.5 mph N/A   Overcast
1:35 PM 80.6 °F 82.3 °F 64.4 °F 58% 29.91 in 10.0 mi South 18.4 mph 24.2 mph N/A   Mostly Cloudy
2:15 PM 80.6 °F 82.3 °F 64.4 °F 58% 29.91 in 10.0 mi South 18.4 mph - N/A   Mostly Cloudy
2:35 PM 80.6 °F 82.3 °F 64.4 °F 58% 29.91 in 10.0 mi South 19.6 mph 26.5 mph N/A   Mostly Cloudy
2:55 PM 80.6 °F 82.3 °F 64.4 °F 58% 29.92 in 10.0 mi South 17.3 mph 24.2 mph N/A   Overcast
3:15 PM 80.6 °F 82.3 °F 64.4 °F 58% 29.93 in 10.0 mi South 15.0 mph 20.7 mph N/A   Overcast
3:35 PM 78.8 °F - 66.2 °F 65% 29.92 in 10.0 mi SSE 16.1 mph - N/A   Mostly Cloudy
3:55 PM 78.8 °F - 68.0 °F 69% 29.92 in 10.0 mi South 15.0 mph - N/A   Mostly Cloudy
4:15 PM 78.8 °F - 68.0 °F 69% 29.93 in 10.0 mi South 12.7 mph - N/A   Scattered Clouds
4:35 PM 78.8 °F - 66.2 °F 65% 29.93 in 10.0 mi South 15.0 mph 18.4 mph N/A   Scattered Clouds
4:55 PM 78.8 °F - 66.2 °F 65% 29.94 in 10.0 mi South 12.7 mph - N/A   Scattered Clouds
5:15 PM 77.0 °F - 66.2 °F 69% 29.95 in 10.0 mi South 11.5 mph - N/A   Scattered Clouds
5:35 PM 77.0 °F - 68.0 °F 74% 29.95 in 10.0 mi South 9.2 mph - N/A   Scattered Clouds
5:55 PM 75.2 °F - 68.0 °F 78% 29.96 in 10.0 mi SSE 5.8 mph - N/A   Scattered Clouds
6:15 PM 73.4 °F - 68.0 °F 83% 29.96 in 10.0 mi SSE 4.6 mph - N/A   Scattered Clouds
6:35 PM 73.4 °F - 68.0 °F 83% 29.98 in 10.0 mi South 3.5 mph - N/A   Scattered Clouds
6:55 PM 71.6 °F - 68.0 °F 88% 29.98 in 10.0 mi SSE 3.5 mph - N/A   Scattered Clouds
7:15 PM 71.6 °F - 68.0 °F 88% 29.99 in 10.0 mi SE 3.5 mph - N/A   Clear
7:35 PM 71.6 °F - 68.0 °F 88% 30.00 in 10.0 mi SSE 3.5 mph - N/A   Mostly Cloudy
7:55 PM 71.6 °F - 68.0 °F 88% 30.01 in 10.0 mi SSE 4.6 mph - N/A   Overcast
8:15 PM 69.8 °F - 68.0 °F 94% 30.01 in 10.0 mi SSE 4.6 mph - N/A   Mostly Cloudy
8:35 PM 69.8 °F - 68.0 °F 94% 30.02 in 10.0 mi Calm Calm - N/A   Scattered Clouds
8:55 PM 69.8 °F - 68.0 °F 94% 30.03 in 10.0 mi Calm Calm - N/A   Clear
9:15 PM 69.8 °F - 68.0 °F 94% 30.05 in 10.0 mi Calm Calm - N/A   Scattered Clouds
9:35 PM 69.8 °F - 68.0 °F 94% 30.05 in 10.0 mi Calm Calm - N/A   Overcast
9:55 PM 68.0 °F - 60.8 °F 78% 30.08 in 10.0 mi NNW 28.8 mph 36.8 mph N/A   Overcast
10:15 PM 60.8 °F - 53.6 °F 77% 30.11 in 7.0 mi NNW 20.7 mph 29.9 mph N/A Rain Rain
10:35 PM 59.0 °F - 53.6 °F 82% 30.12 in 10.0 mi North 11.5 mph 20.7 mph N/A Rain Light Rain
10:55 PM 59.0 °F - 53.6 °F 82% 30.13 in 10.0 mi North 15.0 mph 23.0 mph N/A   Overcast
11:15 PM 59.0 °F - 53.6 °F 82% 30.13 in 10.0 mi North 12.7 mph - N/A   Overcast
11:35 PM 59.0 °F - 51.8 °F 77% 30.14 in 10.0 mi North 9.2 mph 16.1 mph N/A   Overcast
11:55 PM 59.0 °F - 51.8 °F 77% 30.14 in 10.0 mi North 10.4 mph 17.3 mph 0.01 in Rain Light Rain